User: anonymous   Login
Location: Unspecified
(0.0000°N, 0.0000°E)
Time: 03:00:21
(UTC+00:00)
Language:

STARLINK-4147 - Orbit

View from above orbital plane
View from above orbital plane
View from above satellite
View from above satellite

Ground track
Ground track

The orbit is defined by the following mean orbital elements,

1 53256U          26145.46714632 +.00000000 +00000-0 +11440-3 0 00008
2 53256  53.2124 209.4526 0001001  71.6424 288.4677 15.08847155    00
Epoch (UTC): 25 May 2026 11:12:41
Eccentricity: 0.0001001
inclination: 53.2124°
perigee height: 539 km
apogee height: 540 km
right ascension of ascending node: 209.4526°
argument of perigee: 71.6424°
revolutions per day: 15.08847155
mean anomaly at epoch: 288.4677°

The dashed part of the orbit path shows where the satellite is in the earth's shadow,  

DLR